Change the Weather History Date:

Tuesday, August 27, 2013

  Actual Average Record
Temperature  
Mean Temperature 78 °F -  
Max Temperature 86 °F 80 °F 87 °F (2004)
Min Temperature 71 °F 59 °F 52 °F (2010)
Cooling Degree Days 12    
Growing Degree Days 28 (Base 50)    
Moisture  
Dew Point 70 °F    
Average Humidity 78    
Maximum Humidity 91    
Minimum Humidity 63    
Precipitation  
Precipitation 0.00 in - - ()
Sea Level Pressure  
Sea Level Pressure 30.00 in    
Wind  
Wind Speed 6 mph (SW)    
Max Wind Speed 10 mph    
Max Gust Speed -    
Visibility 7 miles    
Events Rain    
Averages and records for this station are not official NWS values.
T = Trace of Precipitation, MM = Missing Value Source: NWS Daily Summary

Daily Weather History Graph

Daily Weather History Graph

Search for Another Location

Airport or City:

Trip Planner

Search our weather history database for the weather conditions in past years. The results will help you decide how hot, cold, wet, or windy it might be!

Date:

Astronomy

Aug. 27, 2013 Rise Set
Actual Time 6:55 AM EDT 8:11 PM EDT
Civil Twilight 6:27 AM EDT 8:39 PM EDT
Nautical Twilight 5:53 AM EDT 9:12 PM EDT
Astronomical Twilight 5:18 AM EDT 9:48 PM EDT
Moon No Moon Rise 1:52 PM EDT (8/27)
Length of Visible Light 14h 11m
Length of Day
13h 15m
Waning Gibbous, 57% of the Moon is Illuminated
Aug 27
Waning Gibbous
Aug 28
Last Quarter
Sep 5
New
Sep 12
First Quarter
Sep 19
Full

Hourly Weather History & Observations

Time (EDT) Temp. Heat Index Dew Point Humidity Pressure Visibility Wind Dir Wind Speed Gust Speed Precip Events Conditions
12:53 AM 73.0 °F - 66.9 °F 81% 30.05 in 7.0 mi WSW 5.8 mph - N/A   Clear
1:53 AM 72.0 °F - 66.9 °F 84% 30.04 in 7.0 mi WSW 3.5 mph - N/A   Clear
2:53 AM 72.0 °F - 66.9 °F 84% 30.04 in 6.0 mi WSW 4.6 mph - N/A   Haze
3:53 AM 71.1 °F - 66.9 °F 87% 30.04 in 6.0 mi SSW 4.6 mph - N/A   Clear
4:53 AM 72.0 °F - 66.9 °F 84% 30.03 in 6.0 mi SW 3.5 mph - N/A   Haze
5:53 AM 72.0 °F - 68.0 °F 87% 30.02 in 6.0 mi WSW 5.8 mph - N/A   Partly Cloudy
6:53 AM 72.0 °F - 68.0 °F 87% 30.03 in 5.0 mi WSW 4.6 mph - N/A   Mostly Cloudy
7:53 AM 72.0 °F - 69.1 °F 91% 30.04 in 4.0 mi WSW 4.6 mph - N/A   Mostly Cloudy
8:53 AM 73.9 °F - 69.1 °F 85% 30.04 in 5.0 mi West 6.9 mph - N/A   Haze
9:53 AM 75.9 °F - 70.0 °F 82% 30.04 in 6.0 mi West 10.4 mph - N/A   Haze
10:53 AM 79.0 °F - 71.1 °F 77% 30.05 in 7.0 mi West 8.1 mph - N/A   Clear
11:53 AM 80.1 °F 83.2 °F 70.0 °F 71% 30.05 in 8.0 mi ENE 8.1 mph - N/A   Clear
12:53 PM 78.1 °F - 70.0 °F 76% 30.04 in 8.0 mi ESE 3.5 mph - N/A   Partly Cloudy
1:53 PM 78.1 °F - 70.0 °F 76% 30.03 in 8.0 mi SSW 4.6 mph - N/A   Clear
2:53 PM 81.0 °F 84.4 °F 70.0 °F 69% 30.01 in 8.0 mi SSW 4.6 mph - 0.00 in Rain Light Rain
3:53 PM 84.0 °F 88.4 °F 70.0 °F 63% 29.98 in 8.0 mi SSW 9.2 mph - 0.00 in   Clear
4:53 PM 84.9 °F 90.1 °F 71.1 °F 63% 29.96 in 8.0 mi SSW 8.1 mph - N/A   Clear
5:53 PM 84.0 °F 90.2 °F 73.0 °F 69% 29.95 in 8.0 mi SW 9.2 mph - N/A   Clear
6:53 PM 84.0 °F 89.6 °F 72.0 °F 67% 29.95 in 9.0 mi SSW 9.2 mph - N/A   Clear
7:53 PM 82.9 °F 88.8 °F 73.0 °F 72% 29.95 in 8.0 mi SW 8.1 mph - N/A   Clear
8:53 PM 82.0 °F 87.4 °F 73.0 °F 74% 29.94 in 8.0 mi SW 9.2 mph - N/A   Clear
9:53 PM 81.0 °F 85.8 °F 73.0 °F 77% 29.94 in 8.0 mi SW 6.9 mph - N/A   Clear
10:53 PM 80.1 °F 84.2 °F 73.0 °F 79% 29.94 in 8.0 mi SW 8.1 mph - N/A   Clear
11:53 PM 80.1 °F 84.2 °F 73.0 °F 79% 29.94 in 7.0 mi WSW 10.4 mph - N/A   Partly Cloudy